Regional Weather Roundup
Issued by NWS Memphis, TN

Home | Current Version | Previous Version | Text Only | Print | Product List | Glossary On
Versions: 1 2 3 4 5 6 7 8 9 10 11 12 13 14 15 16 17 18 19 20 21 22 23 24 25 26 27 28 29 30 31 32 33 34 35 36 37 38 39 40 41 42 43 44 45 46 47 48 49 50
690
ASUS44 KMEG 141310
RWRMEG
MEMPHIS CWA HOURLY WEATHER ROUNDUP
NATIONAL WEATHER SERVICE MEMPHIS TN
700 AM CST SUN FEB 14 2016

...WEST TENNESSEE...

CITY           SKY/WX    TMP DP  RH WIND       PRES   REMARKS
MEMPHIS INTL   CLOUDY    35   9  33 SE9       30.21F WCI  28
NWS MEMPHIS      N/A     33 N/A N/A MISG        N/A
JACKSON        CLOUDY    29   8  41 SE10      30.25F WCI  20
LEXINGTON      CLOUDY    27   7  43 E7        30.27F WCI  19
DYERSBURG      CLOUDY    28   9  43 E10       30.27F WCI  19
UNION CITY     CLOUDY    27  12  54 E10       30.26F WCI  17
PARIS          CLOUDY    25   9  50 E14       30.28F WCI  13


...EASTERN ARKANSAS...

CITY           SKY/WX    TMP DP  RH WIND       PRES   REMARKS
JONESBORO      CLOUDY    29  20  69 E12       30.21F WCI  19
WEST MEMPHIS   CLOUDY    34  12  40 SE13      30.20F WCI  25
BATESVILLE     CLOUDY    30  14  51 E8        30.17F WCI  23
NEWPORT        CLOUDY    32  15  49 E9        30.20F WCI  24
WALNUT RIDGE   CLOUDY    28  14  54 SE12      30.22F WCI  18
BLYTHEVILLE    CLOUDY    31  11  43 E16       30.23F WCI  20
SEARCY         CLOUDY    33  15  47 E6        30.19S WCI  28
STUTTGART      CLOUDY    37  18  44 SE10      30.16F WCI  30
PINE BLUFF     CLOUDY    39  21  48 SE9       30.16S WCI  33
MONTICELLO     CLOUDY    42  21  43 SE9       30.17S


...NORTH MISSISSIPPI...

CITY           SKY/WX    TMP DP  RH WIND       PRES   REMARKS
TUPELO         CLOUDY    32   9  38 CALM      30.29R
OLIVE BRANCH   CLOUDY    32  10  40 SE9       30.20F WCI  24
TUNICA         CLOUDY    34  12  40 SE12      30.22S WCI  25
CORINTH        CLOUDY    32  10  40 SE8       30.27R WCI  25
GREENWOOD      CLOUDY    39  13  34 SE9       30.22F WCI  33
COLUMBUS       CLOUDY    33  12  43 SE7       30.29S WCI  26
STARKVILLE     CLOUDY    32  14  47 SE6       30.30R WCI  26
GOLDEN TRIANGL CLOUDY    34  10  37 SE12      30.29R WCI  25


...SOUTHEAST MISSOURI...

CITY           SKY/WX    TMP DP  RH WIND       PRES   REMARKS
WEST PLAINS    CLOUDY    24  17  74 SE12      30.11F WCI  13
POPLAR BLUFF   FRZ RAIN  25  19  78 E9        30.24S WCI  15
CAPE GIRARDEAU CLOUDY    25  13  60 SE10      30.27F WCI  15


...NORTHWEST ALABAMA...

CITY           SKY/WX    TMP DP  RH WIND       PRES   REMARKS
MUSCLE SHOALS  CLOUDY    29  12  49 SE10      30.29F WCI  20


...MIDDLE TENNESSEE...

CITY           SKY/WX    TMP DP  RH WIND       PRES   REMARKS
NASHVILLE      CLOUDY    28   7  41 NE7       30.37R WCI  21
CLARKSVILLE    FLURRIES  26  10  50 E12       30.34F WCI  16
COLUMBIA       CLOUDY    27  12  54 E9        30.29F WCI  17


...WESTERN KENTUCKY...

CITY           SKY/WX    TMP DP  RH WIND       PRES   REMARKS
PADUCAH        CLOUDY    26  10  50 E12       30.28F WCI  16
FORT CAMPBELL  MOCLDY    26  11  52 E16       30.32F WCI  13


...CENTRAL ARKANSAS...

CITY           SKY/WX    TMP DP  RH WIND       PRES   REMARKS
LITTLE ROCK    CLOUDY    36  18  48 E6        30.16F WCI  31


SKY/WX REPORTED AS FAIR MEANS FEW OR NO CLOUDS BELOW
12 THOUSAND FEET.





USA.gov is the U.S. government's official web portal to all federal, state and local government web resources and services.